Home   Weather   Rheine   Past weeks

Flag for Germany Past Weather in Rheine, North Rhine-Westphalia, Germany — Yesterday and Last 2 Weeks

Now
18 °F

Cold.


Feels Like: 18 °F
Forecast: 17 / 32 °F
Wind: No wind

Location: Rheine-Bentlage

Current Time: Jan 22, 2017 at 9:17:21 am

Latest Report: Jan 22, 2017 at 8:20 am


Visibility: N/A

Pressure: 30.33 "Hg

Humidity: 100%

Dew Point: 18 °F

Location of RheineLocation

Past Weather in Rheine — Graph

°F

Rheine Temperature Yesterday

Maximum temperature yesterday: 37 °F (at 1:20 pm)
Minimum temperature yesterday: 23 °F (at 11:20 pm)
Average temperature yesterday: 31 °F

High & Low Weather Summary for the Past Weeks

 TemperatureHumidityPressure
High46 °F (Jan 11, 1:20 pm)100% (Jan 7, 3:20 pm)30.74 "Hg (Jan 7, 3:20 pm)
Low18 °F (Jan 22, 7:20 am)51% (Jan 20, 5:20 pm)28.97 "Hg (Jan 13, 2:20 am)
Average32 °F89%30.16 "Hg
* Reported Jan 7 7:20 am — Jan 22 7:20 am, Rheine, Weather by CustomWeather, © 2017

Note: Actual official high and low records may vary slightly from our data, if they occured in-between our weather recording intervals... More about our weather records

Advertising

Rheine Weather History for the Previous 24 Hours

Scroll right to see more
 ConditionsComfort  
Time TempWeatherWind HumidityBarometerVisibility
7:20 am
Sun, Jan 22
18 °FCold.No wind93%30.33 "HgN/A
6:20 am19 °FCold.1 mph100%30.33 "HgN/A
5:20 am21 °FCold.No wind93%30.36 "HgN/A
4:20 am23 °FCold.No wind93%30.36 "HgN/A
3:20 am25 °FCold.2 mph93%30.36 "HgN/A
2:20 am23 °FCold.2 mph100%30.36 "HgN/A
1:20 am25 °FCold.3 mph93%30.36 "HgN/A
12:20 am25 °FCold.2 mph93%30.36 "HgN/A
11:20 pm
Sat, Jan 21
23 °FCold.2 mph93%30.36 "HgN/A
10:20 pm28 °FChilly.3 mph86%30.36 "HgN/A
9:20 pm30 °FChilly.7 mph86%30.36 "HgN/A
8:20 pm30 °FChilly.6 mph86%30.39 "HgN/A
7:20 pm32 °FChilly.6 mph87%30.39 "HgN/A
6:20 pm32 °FChilly.6 mph87%30.39 "HgN/A
5:20 pm34 °FChilly.3 mph81%30.39 "HgN/A
4:20 pm37 °FChilly.7 mph70%30.39 "HgN/A
3:20 pm37 °FChilly.8 mph70%30.39 "HgN/A
2:20 pm37 °FChilly.6 mph70%30.42 "HgN/A
1:20 pm37 °FChilly.8 mph70%30.42 "HgN/A
12:20 pm34 °FChilly.8 mph87%30.45 "HgN/A
11:20 am32 °FChilly.8 mph100%30.45 "HgN/A
10:20 am30 °FChilly.7 mph100%30.48 "HgN/A
9:20 am28 °FChilly.7 mph100%30.48 "HgN/A
Weather by CustomWeather, © 2017

See weather overviewHow to use our weather pages